Location: Chassagnes
(44.4047°N, 4.1657°E)
Time: 12:42:01
(UTC+00:00)

Cosmos 2058 - Pass Details

Date: 27 October 2020
Orbit: 561 x 584 km, 82.5° (Epoch: 23 November)

Event Time Altitude Azimuth Distance (km) Brightness Sun altitude
Rises 17:24:24 0° 5° (N) 2,764 6.2 -8.6°
Reaches altitude 10° 17:27:06 10° 24° (NNE) 1,862 5.2 -9.1°
Maximum altitude 17:30:06 19° 71° (ENE) 1,358 4.2 -9.7°
Drops below altitude 10° 17:33:05 10° 118° (ESE) 1,854 5.0 -10.2°
Enters shadow 17:35:10 - 133° (SE) 2,538 5.8 -10.5°
